TimeEDT,TemperatureF,Dew PointF,Humidity,Sea Level PressureIn,VisibilityMPH,Wind Direction,Wind SpeedMPH,Gust SpeedMPH,PrecipitationIn,Events,Conditions,WindDirDegrees,DateUTC
12:53 AM,72.0,64.0,76,30.09,7.0,Calm,Calm,-,N/A,,Clear,0,2013-05-08 04:53:00
1:53 AM,71.1,64.9,81,30.08,10.0,North,3.5,-,N/A,,Clear,10,2013-05-08 05:53:00
2:53 AM,70.0,64.9,84,30.07,10.0,Calm,Calm,-,N/A,,Scattered Clouds,0,2013-05-08 06:53:00
3:42 AM,69.8,64.4,83,30.07,10.0,Calm,Calm,-,N/A,,Mostly Cloudy,0,2013-05-08 07:42:00
3:53 AM,69.1,64.0,84,30.07,10.0,Calm,Calm,-,N/A,,Scattered Clouds,0,2013-05-08 07:53:00
4:53 AM,68.0,64.9,90,30.07,10.0,Calm,Calm,-,N/A,,Clear,0,2013-05-08 08:53:00
5:53 AM,69.1,66.0,90,30.08,10.0,Calm,Calm,-,N/A,,Clear,0,2013-05-08 09:53:00
6:53 AM,71.1,64.9,81,30.09,10.0,NE,4.6,-,N/A,,Partly Cloudy,40,2013-05-08 10:53:00
7:53 AM,73.9,64.9,73,30.11,10.0,NE,3.5,-,N/A,,Partly Cloudy,50,2013-05-08 11:53:00
8:53 AM,75.9,64.0,67,30.13,10.0,East,4.6,-,N/A,,Partly Cloudy,90,2013-05-08 12:53:00
9:53 AM,78.1,64.0,62,30.13,10.0,East,5.8,-,N/A,,Partly Cloudy,80,2013-05-08 13:53:00
10:53 AM,80.1,64.9,60,30.13,10.0,East,5.8,-,N/A,,Partly Cloudy,100,2013-05-08 14:53:00
11:53 AM,81.0,66.0,60,30.14,10.0,Variable,4.6,-,N/A,,Scattered Clouds,0,2013-05-08 15:53:00
12:53 PM,81.0,66.0,60,30.13,10.0,East,6.9,-,N/A,,Scattered Clouds,90,2013-05-08 16:53:00
1:53 PM,82.0,66.9,60,30.12,10.0,Variable,5.8,-,N/A,,Scattered Clouds,0,2013-05-08 17:53:00
2:53 PM,81.0,66.9,62,30.11,10.0,ESE,8.1,-,N/A,,Scattered Clouds,120,2013-05-08 18:53:00
3:53 PM,82.0,66.9,60,30.10,10.0,Calm,Calm,-,N/A,,Scattered Clouds,0,2013-05-08 19:53:00
4:53 PM,80.1,66.0,62,30.09,10.0,North,6.9,-,N/A,,Scattered Clouds,10,2013-05-08 20:53:00
5:53 PM,80.1,66.9,64,30.08,10.0,North,8.1,-,N/A,,Scattered Clouds,10,2013-05-08 21:53:00
6:53 PM,79.0,66.9,66,30.07,10.0,NNE,9.2,-,N/A,,Scattered Clouds,20,2013-05-08 22:53:00
7:53 PM,77.0,66.9,71,30.08,10.0,NNE,8.1,-,N/A,,Scattered Clouds,20,2013-05-08 23:53:00
8:53 PM,75.9,66.9,74,30.09,10.0,NNE,10.4,-,N/A,,Scattered Clouds,30,2013-05-09 00:53:00
9:53 PM,75.9,66.9,74,30.11,10.0,NE,8.1,-,N/A,,Scattered Clouds,40,2013-05-09 01:53:00
10:53 PM,75.0,68.0,79,30.13,10.0,NE,6.9,-,N/A,,Clear,50,2013-05-09 02:53:00
11:04 PM,75.2,66.2,73,30.13,10.0,NE,5.8,-,N/A,,Partly Cloudy,50,2013-05-09 03:04:00
11:53 PM,75.0,68.0,79,30.14,10.0,NE,5.8,-,N/A,,Clear,50,2013-05-09 03:53:00